Regional Weather Roundup
Issued by NWS Midland/Odessa, TX

Skip options and go directly to product.
Home | Oldest Version | Previous Version | Current Version | All | Text Only | Save Text | Print | Product List | Glossary On

Skip product version selection by date and time.   
722
ASUS44 KMAF 301210
RWRMAF
MIDLAND AREA WEATHER ROUNDUP
NATIONAL WEATHER SERVICE MIDLAND TX
700 AM CDT TUE SEP 30 2014

...IN SOUTHWEST TEXAS AND SOUTHEAST NEW MEXICO...

CITY           SKY/WX    TMP DP  RH WIND       PRES   REMARKS
ALPINE         CLEAR     65  56  72 SW7       30.04S
ANDREWS        FAIR      62  60  91 SE5       29.91S
ARTESIA        NOT AVBL
BIG SPRING     PTCLDY    66  59  77 S9        29.93R
CARLSBAD       CLEAR     61  58  90 S5        29.89R
DRYDEN           N/A     66  63  90 N6        29.89S
FORT STOCKTON  CLEAR     64  59  83 S7        29.90R
GUAD PASS      PTCLDY    62  54  74 W10       30.04S
HOBBS          CLEAR     59  59 100 S6        29.93
MARFA          CLEAR     54  52  94 N3        30.05R
MIDLAND AIRPK  CLEAR     65  60  81 SE6       29.92R
MIDLAND INTL   CLOUDY    65  59  81 S13       29.90S
ODESSA         CLOUDY    66  59  78 S9        29.91S
PECOS          CLEAR     62  59  88 CALM      29.87R
PRESIDIO       FAIR      68  60  75 N5        29.91S
SEMINOLE       PTCLDY    61  59  94 S5        29.93S
SNYDER         PTCLDY    62  58  84 S7        29.91S
WINK           CLEAR     66  61  84 SE10      29.87S
$$
...OTHER STATIONS IN TEXAS...

CITY           SKY/WX    TMP DP  RH WIND       PRES   REMARKS
ABILENE        CLEAR     67  57  70 S5        29.91S
AMARILLO       CLEAR     60  56  86 S14       29.91S
AUSTIN         PTCLDY    62  61  96 CALM      29.89S
BROWNSVILLE    FOG       75  73  94 CALM      29.83S VSB 3/4
CORPUS CHRISTI CLOUDY    74  73  97 CALM      29.84R
DALLAS FTW     MOCLDY    70  65  84 SE3       29.90R
DEL RIO        CLEAR     69  66  90 E7        29.86S
EL PASO        CLEAR     70  52  52 N3        29.95R
HOUSTON INT    PTCLDY    72  70  93 CALM      29.87R
LUBBOCK        PTCLDY    62  57  83 S9        29.91S
SAN ANGELO     CLEAR     66  62  87 S7        29.90S
SAN ANTONIO    CLEAR     67  63  87 NW3       29.90R
WACO           CLEAR     65  60  84 NE3       29.89S
WICHITA FALLS  NOT AVBL
$$
...OTHER LOCATIONS IN NEW MEXICO...

CITY           SKY/WX    TMP DP  RH WIND       PRES   REMARKS
ALAMAGORDO     PTCLDY    63  55  77 S7        29.95S
ALBUQUERQUE    CLEAR     52  36  54 NE5       30.05R
CANNON AFB     NOT AVBL
CLOVIS           N/A     54  52  94 S3        29.96S
HOLLOMAN AFB   CLEAR     62  55  80 CALM      29.94R
ROSWELL        PTCLDY    61  54  77 NW8       29.92R
RUIDOSO        PTCLDY    55  30  38 NW8       30.10S
SANTA FE       CLEAR     44  33  65 N10       30.05F WCI  39
TRUTH OR CONSE CLEAR     57  42  57 NW7       30.00R
TUCUMCARI      CLEAR     58  52  80 SW9       29.89S
$$

USA.gov is the U.S. government's official web portal to all federal, state and local government web resources and services.